Estación de Punta Cortes
Ultimos registro cada 15 minutos 77
| N° | Estación | Fecha / Hora | Temperatura | Humedad | Lluvia | Velocidad | Dirección | Radiación | Presion |
| 77 | Punta Cortes | 09-05-2026 19:00 | 12,9 | 68 | 0 | 0,4 | 163 | 0 | 1019,3 |
| 76 | Punta Cortes | 09-05-2026 18:45 | 13,3 | 66 | 0 | 0,4 | 161 | 0 | 1019,2 |
| 75 | Punta Cortes | 09-05-2026 18:30 | 14,1 | 64 | 0 | 0,9 | 169 | 0 | 1019 |
| 74 | Punta Cortes | 09-05-2026 18:15 | 15,2 | 65 | 0 | 0 | 118 | 0 | 1018,7 |
| 73 | Punta Cortes | 09-05-2026 18:00 | 16,1 | 62 | 0 | 1,8 | 176 | 0 | 1018,4 |
| 72 | Punta Cortes | 09-05-2026 17:45 | 16,6 | 61 | 0 | 0 | 202 | 7 | 1018,3 |
| 71 | Punta Cortes | 09-05-2026 17:30 | 17 | 61 | 0 | 2,2 | 134 | 12 | 1018,3 |
| 70 | Punta Cortes | 09-05-2026 17:15 | 17,4 | 59 | 0 | 1,3 | 172 | 16 | 1017,9 |
| 69 | Punta Cortes | 09-05-2026 17:00 | 18,6 | 57 | 0 | 1,3 | 140 | 21 | 1017,6 |
| 68 | Punta Cortes | 09-05-2026 16:45 | 19,3 | 56 | 0 | 1,8 | 157 | 135 | 1017,5 |
| 67 | Punta Cortes | 09-05-2026 16:30 | 19,7 | 56 | 0 | 0,9 | 146 | 195 | 1017,5 |
| 66 | Punta Cortes | 09-05-2026 16:15 | 19,7 | 56 | 0 | 1,3 | 175 | 253 | 1017,6 |
| 65 | Punta Cortes | 09-05-2026 16:00 | 19,9 | 55 | 0 | 1,3 | 140 | 297 | 1017,8 |
| 64 | Punta Cortes | 09-05-2026 15:45 | 19,8 | 55 | 0 | 1,8 | 127 | 346 | 1017,8 |
| 63 | Punta Cortes | 09-05-2026 15:30 | 19,7 | 55 | 0 | 0,9 | 196 | 388 | 1018 |
| 62 | Punta Cortes | 09-05-2026 15:15 | 19,7 | 55 | 0 | 1,3 | 169 | 411 | 1017,9 |
| 61 | Punta Cortes | 09-05-2026 15:00 | 19,7 | 55 | 0 | 2,2 | 146 | 466 | 1017,9 |
| 60 | Punta Cortes | 09-05-2026 14:45 | 19,6 | 56 | 0 | 2,2 | 146 | 501 | 1018,1 |
| 59 | Punta Cortes | 09-05-2026 14:30 | 19,8 | 55 | 0 | 1,3 | 148 | 534 | 1018,2 |
| 58 | Punta Cortes | 09-05-2026 14:15 | 19,6 | 55 | 0 | 0,4 | 153 | 559 | 1018,2 |
| 57 | Punta Cortes | 09-05-2026 14:00 | 19,5 | 56 | 0 | 1,3 | 185 | 585 | 1018,4 |
| 56 | Punta Cortes | 09-05-2026 13:45 | 19,3 | 57 | 0 | 2,2 | 206 | 608 | 1018,5 |
| 55 | Punta Cortes | 09-05-2026 13:30 | 18,8 | 54 | 0 | 1,3 | 102 | 628 | 1018,5 |
| 54 | Punta Cortes | 09-05-2026 13:15 | 18,4 | 56 | 0 | 2,2 | 190 | 640 | 1018,6 |
| 53 | Punta Cortes | 09-05-2026 13:00 | 18,1 | 60 | 0 | 0,9 | 159 | 652 | 1019 |
| 52 | Punta Cortes | 09-05-2026 12:45 | 17,8 | 61 | 0 | 1,8 | 89 | 654 | 1019,3 |
| 51 | Punta Cortes | 09-05-2026 12:30 | 17,2 | 57 | 0 | 0,4 | 332 | 657 | 1019,5 |
| 50 | Punta Cortes | 09-05-2026 12:15 | 16,6 | 64 | 0 | 0,4 | 253 | 654 | 1019,7 |
| 49 | Punta Cortes | 09-05-2026 12:00 | 15,5 | 63 | 0 | 1,8 | 356 | 649 | 1020 |
| 48 | Punta Cortes | 09-05-2026 11:45 | 14,5 | 67 | 0 | 2,2 | 348 | 636 | 1020 |
| 47 | Punta Cortes | 09-05-2026 11:30 | 13,7 | 70 | 0 | 2,7 | 353 | 622 | 1020,3 |
| 46 | Punta Cortes | 09-05-2026 11:15 | 13,2 | 73 | 0 | 0,4 | 326 | 603 | 1020,5 |
| 45 | Punta Cortes | 09-05-2026 11:00 | 12,3 | 75 | 0 | 1,8 | 353 | 580 | 1020,6 |
| 44 | Punta Cortes | 09-05-2026 10:45 | 11,7 | 78 | 0 | 0,4 | 7 | 552 | 1021,1 |
| 43 | Punta Cortes | 09-05-2026 10:30 | 10,9 | 82 | 0 | 1,8 | 360 | 519 | 1021,1 |
| 42 | Punta Cortes | 09-05-2026 10:15 | 10,3 | 84 | 0 | 1,8 | 10 | 483 | 1021,3 |
| 41 | Punta Cortes | 09-05-2026 10:00 | 10 | 86 | 0 | 1,8 | 3 | 446 | 1021,3 |
| 40 | Punta Cortes | 09-05-2026 09:45 | 9,8 | 87 | 0 | 0,9 | 329 | 390 | 1021,4 |
| 39 | Punta Cortes | 09-05-2026 09:30 | 9,4 | 87 | 0 | 0 | 2 | 251 | 1021,5 |
| 38 | Punta Cortes | 09-05-2026 09:15 | 9,3 | 88 | 0 | 0 | 352 | 155 | 1021,7 |
| 37 | Punta Cortes | 09-05-2026 09:00 | 9 | 89 | 0 | 0,4 | 340 | 172 | 1021,8 |
| 36 | Punta Cortes | 09-05-2026 08:45 | 8,9 | 89 | 0 | 0,4 | 323 | 100 | 1021,7 |
| 35 | Punta Cortes | 09-05-2026 08:30 | 8,8 | 90 | 0 | 0 | 21 | 58 | 1021,8 |
| 34 | Punta Cortes | 09-05-2026 08:15 | 8,7 | 90 | 0 | 0 | 21 | 40 | 1021,7 |
| 33 | Punta Cortes | 09-05-2026 08:00 | 8,7 | 90 | 0 | 0 | 21 | 26 | 1021,5 |
| 32 | Punta Cortes | 09-05-2026 07:45 | 8,7 | 90 | 0 | 0 | 21 | 12 | 1021,4 |
| 31 | Punta Cortes | 09-05-2026 07:30 | 8,8 | 90 | 0 | 0 | 158 | 5 | 1021,4 |
| 30 | Punta Cortes | 09-05-2026 07:15 | 8,9 | 91 | 0 | 0 | 212 | 0 | 1021,7 |
| 29 | Punta Cortes | 09-05-2026 07:00 | 8,9 | 91 | 0 | 0,9 | 190 | 0 | 1021,6 |
| 28 | Punta Cortes | 09-05-2026 06:45 | 9 | 91 | 0 | 0,4 | 205 | 0 | 1021,6 |
| 27 | Punta Cortes | 09-05-2026 06:30 | 9,1 | 91 | 0 | 0,9 | 200 | 0 | 1021,6 |
| 26 | Punta Cortes | 09-05-2026 06:15 | 9,1 | 91 | 0 | 1,8 | 190 | 0 | 1021,8 |
| 25 | Punta Cortes | 09-05-2026 06:00 | 9,1 | 91 | 0 | 1,8 | 190 | 0 | 1021,8 |
| 24 | Punta Cortes | 09-05-2026 05:45 | 9,2 | 91 | 0 | 0,9 | 138 | 0 | 1021,7 |
| 23 | Punta Cortes | 09-05-2026 05:30 | 9,2 | 91 | 0 | 2,2 | 190 | 0 | 1021,5 |
| 22 | Punta Cortes | 09-05-2026 05:15 | 9,3 | 92 | 0 | 1,8 | 206 | 0 | 1021,5 |
| 21 | Punta Cortes | 09-05-2026 05:00 | 9,4 | 91 | 0 | 1,8 | 197 | 0 | 1021,6 |
| 20 | Punta Cortes | 09-05-2026 04:45 | 9,3 | 91 | 0 | 0,9 | 190 | 0 | 1021,6 |
| 19 | Punta Cortes | 09-05-2026 04:30 | 9,3 | 92 | 0 | 2,2 | 201 | 0 | 1021,7 |
| 18 | Punta Cortes | 09-05-2026 04:15 | 9,3 | 93 | 0 | 0,9 | 159 | 0 | 1021,9 |
| 17 | Punta Cortes | 09-05-2026 04:00 | 9,3 | 94 | 0 | 1,8 | 237 | 0 | 1021,8 |
| 16 | Punta Cortes | 09-05-2026 03:45 | 9,2 | 94 | 0 | 1,3 | 180 | 0 | 1022 |
| 15 | Punta Cortes | 09-05-2026 03:30 | 8,9 | 92 | 0 | 0 | 339 | 0 | 1022,1 |
| 14 | Punta Cortes | 09-05-2026 03:15 | 9,3 | 94 | 0 | 0 | 147 | 0 | 1022,2 |
| 13 | Punta Cortes | 09-05-2026 03:00 | 9,3 | 94 | 0 | 1,3 | 190 | 0 | 1022,2 |
| 12 | Punta Cortes | 09-05-2026 02:45 | 9,2 | 94 | 0 | 0 | 180 | 0 | 1022,3 |
| 11 | Punta Cortes | 09-05-2026 02:30 | 9,2 | 94 | 0 | 0,4 | 209 | 0 | 1022,6 |
| 10 | Punta Cortes | 09-05-2026 02:15 | 9,2 | 95 | 0 | 1,3 | 104 | 0 | 1022,7 |
| 9 | Punta Cortes | 09-05-2026 02:00 | 8,9 | 95 | 0 | 0,9 | 215 | 0 | 1022,7 |
| 8 | Punta Cortes | 09-05-2026 01:45 | 8,5 | 96 | 0 | 2,7 | 203 | 0 | 1022,2 |
| 7 | Punta Cortes | 09-05-2026 01:30 | 7,6 | 93 | 0 | 0 | 99 | 0 | 1022,2 |
| 6 | Punta Cortes | 09-05-2026 01:15 | 7,9 | 94 | 0 | 0,4 | 263 | 0 | 1021,7 |
| 5 | Punta Cortes | 09-05-2026 01:00 | 7,8 | 94 | 0 | 0 | 159 | 0 | 1021,8 |
| 4 | Punta Cortes | 09-05-2026 00:45 | 7,6 | 92 | 0 | 0 | 180 | 0 | 1022,1 |
| 3 | Punta Cortes | 09-05-2026 00:30 | 8 | 92 | 0 | 0 | 218 | 0 | 1022,1 |
| 2 | Punta Cortes | 09-05-2026 00:15 | 8,5 | 91 | 0 | 0 | 110 | 0 | 1022,2 |
| 1 | Punta Cortes | 09-05-2026 00:00 | 9,1 | 93 | 0 | 0 | 4 | 0 | 1022,6 |